TAP56 LPPT-SBGL

Flight info

Callsign TAP56
Flight time N/A
Altitude 37000
Route OLBOD DCT DIKUV DCT SNT Q205 NELSO N741 ROSTA/N0485F380 N741 EDUMO UN741 GAMBA/N0489F390 UN741 NANIK/N0484F400 UN741 TERIN UZ19 ANPAG UZ29 KEVOS UN401 MOLSU
Aircraft A359/H-SDE2E3GHIJ3J4J5LM1ORWXY/LB1D1

Departure

Time N/A
Airport Lisbon Humberto Delgado Airport (LPPT)

Arrival

Time 2026-04-28 21:05
Airport Rio Galeão – Tom Jobim International Airport (SBGL)
Time Latitude Longitude Altitude Speed Heading
2026-04-28 16:48 7.80250 -32.38258 40630 ft 476 kts 207°
2026-04-28 16:49 7.77335 -32.39870 40406 ft 478 kts 207°
2026-04-28 16:49 7.74422 -32.41464 40073 ft 477 kts 207°
2026-04-28 16:49 7.71497 -32.43052 39980 ft 478 kts 207°
2026-04-28 16:50 7.65667 -32.46205 39981 ft 479 kts 206°
2026-04-28 16:50 7.59795 -32.49379 39982 ft 479 kts 206°
2026-04-28 16:51 7.53937 -32.52548 39980 ft 479 kts 207°
2026-04-28 16:51 7.50031 -32.54661 41534 ft 479 kts 207°
2026-04-28 16:51 7.47129 -32.56233 40134 ft 479 kts 207°
2026-04-28 16:52 7.44200 -32.57819 40378 ft 477 kts 207°
2026-04-28 16:52 7.41286 -32.59395 40591 ft 475 kts 207°
2026-04-28 16:52 7.38380 -32.60965 40848 ft 472 kts 207°
2026-04-28 16:52 7.35489 -32.62527 40976 ft 473 kts 206°
2026-04-28 16:53 7.32576 -32.64101 40983 ft 476 kts 206°
2026-04-28 16:53 7.26721 -32.67263 40977 ft 477 kts 206°
2026-04-28 16:54 7.20909 -32.70403 40977 ft 477 kts 206°
2026-04-28 16:54 7.15060 -32.73563 40980 ft 477 kts 206°
2026-04-28 16:55 7.09214 -32.76719 40979 ft 477 kts 207°
2026-04-28 16:55 7.03369 -32.79874 40979 ft 477 kts 206°
2026-04-28 16:56 6.97513 -32.83034 40977 ft 478 kts 206°
2026-04-28 16:56 6.91661 -32.86191 40980 ft 478 kts 206°
2026-04-28 16:57 6.85836 -32.89333 40978 ft 478 kts 206°
2026-04-28 16:57 6.79982 -32.92489 40980 ft 478 kts 206°
2026-04-28 16:58 6.74123 -32.95647 40980 ft 477 kts 207°
2026-04-28 16:58 6.68265 -32.98804 40979 ft 478 kts 206°
2026-04-28 16:59 6.62442 -33.01940 40980 ft 478 kts 206°
2026-04-28 16:59 6.56581 -33.05097 40980 ft 478 kts 206°
2026-04-28 17:00 6.50715 -33.08256 40981 ft 478 kts 206°
2026-04-28 17:00 6.44848 -33.11414 40985 ft 478 kts 206°
2026-04-28 17:01 6.38978 -33.14572 40980 ft 478 kts 206°
2026-04-28 17:01 6.33152 -33.17707 40978 ft 478 kts 206°
2026-04-28 17:02 6.27275 -33.20856 40977 ft 479 kts 206°
2026-04-28 17:02 6.21400 -33.23995 40977 ft 479 kts 206°
2026-04-28 17:03 6.12613 -33.28690 40977 ft 479 kts 206°
2026-04-28 17:03 6.06730 -33.31835 40976 ft 479 kts 206°
2026-04-28 17:04 5.97913 -33.36548 40980 ft 479 kts 206°
2026-04-28 17:05 5.89089 -33.41262 40979 ft 479 kts 206°
2026-04-28 17:06 5.80306 -33.45953 40977 ft 479 kts 206°
2026-04-28 17:06 5.71479 -33.50665 40980 ft 479 kts 206°
2026-04-28 17:07 5.65590 -33.53808 40979 ft 480 kts 206°
2026-04-28 17:07 5.59735 -33.56933 40979 ft 480 kts 206°
2026-04-28 17:08 5.53843 -33.60075 40979 ft 480 kts 206°
2026-04-28 17:08 5.47950 -33.63218 40980 ft 480 kts 206°
2026-04-28 17:09 5.42052 -33.66364 40973 ft 480 kts 206°
2026-04-28 17:09 5.36158 -33.69506 40977 ft 480 kts 206°
2026-04-28 17:10 5.30289 -33.72633 40977 ft 481 kts 206°
2026-04-28 17:10 5.24378 -33.75784 40978 ft 481 kts 206°
2026-04-28 17:11 5.18467 -33.78933 40971 ft 481 kts 206°
2026-04-28 17:11 5.12556 -33.82081 40973 ft 481 kts 206°
2026-04-28 17:12 5.06643 -33.85231 40977 ft 481 kts 206°
2026-04-28 17:12 5.00767 -33.88359 40974 ft 481 kts 206°
2026-04-28 17:13 4.94853 -33.91507 40974 ft 481 kts 206°
2026-04-28 17:13 4.88940 -33.94654 40976 ft 481 kts 206°
2026-04-28 17:14 4.83026 -33.97801 40974 ft 481 kts 206°
2026-04-28 17:14 4.77110 -34.00948 40972 ft 481 kts 206°
2026-04-28 17:15 4.71232 -34.04075 40971 ft 481 kts 206°
2026-04-28 17:15 4.65323 -34.07217 40972 ft 481 kts 206°
2026-04-28 17:16 4.59415 -34.10358 40975 ft 481 kts 206°
2026-04-28 17:16 4.53542 -34.13480 40971 ft 481 kts 206°
2026-04-28 17:17 4.47643 -34.16620 40971 ft 481 kts 206°
2026-04-28 17:17 4.41739 -34.19782 40970 ft 481 kts 206°
2026-04-28 17:18 4.35852 -34.22938 40969 ft 479 kts 206°
2026-04-28 17:18 4.29979 -34.26085 40971 ft 479 kts 206°
2026-04-28 17:19 4.24140 -34.29210 40963 ft 478 kts 206°
2026-04-28 17:19 4.18273 -34.32351 40963 ft 478 kts 206°
2026-04-28 17:20 4.13391 -34.34964 40963 ft 478 kts 206°
2026-04-28 17:20 4.06535 -34.38632 40967 ft 478 kts 206°
2026-04-28 17:21 4.00681 -34.41765 40966 ft 476 kts 206°
2026-04-28 17:22 3.91958 -34.46431 40966 ft 476 kts 206°
2026-04-28 17:22 3.86111 -34.49557 40966 ft 476 kts 206°
2026-04-28 17:23 3.77331 -34.54251 40966 ft 477 kts 206°
2026-04-28 17:23 3.71513 -34.57362 40966 ft 478 kts 206°
2026-04-28 17:24 3.65643 -34.60499 40966 ft 478 kts 206°
2026-04-28 17:24 3.59771 -34.63637 40963 ft 478 kts 206°
2026-04-28 17:25 3.51004 -34.68325 40963 ft 478 kts 206°
2026-04-28 17:26 3.45135 -34.71462 40963 ft 478 kts 206°
2026-04-28 17:26 3.39255 -34.74599 40963 ft 481 kts 206°
2026-04-28 17:27 3.33328 -34.77762 40964 ft 483 kts 206°
2026-04-28 17:27 3.27432 -34.80911 40962 ft 484 kts 206°
2026-04-28 17:28 3.21495 -34.84081 40963 ft 484 kts 206°
2026-04-28 17:28 3.12585 -34.88838 40958 ft 484 kts 206°
2026-04-28 17:29 3.06636 -34.92013 40965 ft 486 kts 206°
2026-04-28 17:30 2.97705 -34.96779 40967 ft 487 kts 206°
2026-04-28 17:30 2.88742 -35.01562 40967 ft 487 kts 206°
2026-04-28 17:31 2.79813 -35.06325 40963 ft 487 kts 206°
2026-04-28 17:32 2.70847 -35.11107 40965 ft 487 kts 206°
2026-04-28 17:32 2.64864 -35.14293 40961 ft 487 kts 206°
2026-04-28 17:33 2.58877 -35.17468 40968 ft 487 kts 206°
2026-04-28 17:33 2.54914 -35.19569 40966 ft 487 kts 206°
2026-04-28 17:34 2.46954 -35.23793 40963 ft 487 kts 205°
2026-04-28 17:34 2.40962 -35.26972 40964 ft 487 kts 205°
2026-04-28 17:35 2.34976 -35.30149 40962 ft 487 kts 205°
2026-04-28 17:35 2.29034 -35.33302 40961 ft 487 kts 205°
2026-04-28 17:36 2.23053 -35.36475 40964 ft 487 kts 205°
2026-04-28 17:36 2.17067 -35.39650 40962 ft 487 kts 205°
2026-04-28 17:37 2.11087 -35.42822 40963 ft 486 kts 205°
2026-04-28 17:37 2.05147 -35.45973 40963 ft 486 kts 205°
2026-04-28 17:38 1.99166 -35.49145 40963 ft 486 kts 205°
2026-04-28 17:38 1.93188 -35.52315 40963 ft 486 kts 205°
2026-04-28 17:39 1.87213 -35.55483 40963 ft 486 kts 205°
2026-04-28 17:40 1.78299 -35.60210 40962 ft 485 kts 205°
2026-04-28 17:40 1.72334 -35.63372 40964 ft 485 kts 205°
2026-04-28 17:41 1.66374 -35.66532 40963 ft 485 kts 205°
2026-04-28 17:41 1.60409 -35.69694 40966 ft 485 kts 205°
2026-04-28 17:42 1.54487 -35.72833 40965 ft 485 kts 205°
2026-04-28 17:42 1.48518 -35.75996 40966 ft 487 kts 205°
2026-04-28 17:43 1.42530 -35.79170 40965 ft 487 kts 205°
2026-04-28 17:43 1.36547 -35.82341 40966 ft 487 kts 205°
2026-04-28 17:44 1.30556 -35.85516 40966 ft 487 kts 205°
2026-04-28 17:44 1.24609 -35.88666 40966 ft 487 kts 205°
2026-04-28 17:45 1.18624 -35.91838 40964 ft 487 kts 205°
2026-04-28 17:45 1.12640 -35.95008 40966 ft 487 kts 205°
2026-04-28 17:46 1.06660 -35.98177 40967 ft 487 kts 205°
2026-04-28 17:46 1.00682 -36.01344 40966 ft 487 kts 205°
2026-04-28 17:47 0.94735 -36.04495 40964 ft 487 kts 205°
2026-04-28 17:47 0.88749 -36.07666 40966 ft 486 kts 205°
2026-04-28 17:48 0.82772 -36.10832 40966 ft 486 kts 205°
2026-04-28 17:48 0.77809 -36.13461 40966 ft 486 kts 205°
2026-04-28 17:49 0.70874 -36.17135 40962 ft 486 kts 205°
2026-04-28 17:49 0.64902 -36.20298 40963 ft 486 kts 205°
2026-04-28 17:50 0.58930 -36.23461 40963 ft 486 kts 206°
2026-04-28 17:50 0.53964 -36.26091 40966 ft 486 kts 206°
2026-04-28 17:51 0.47022 -36.29768 40966 ft 485 kts 206°
2026-04-28 17:51 0.41059 -36.32926 40966 ft 485 kts 206°
2026-04-28 17:52 0.36058 -36.35575 40966 ft 485 kts 206°
2026-04-28 17:52 0.27148 -36.40293 40966 ft 486 kts 206°
2026-04-28 17:53 0.21170 -36.43459 40966 ft 486 kts 206°
2026-04-28 17:53 0.15191 -36.46626 40963 ft 486 kts 206°
2026-04-28 17:54 0.09255 -36.49770 40966 ft 486 kts 206°
2026-04-28 17:54 0.03281 -36.52934 40966 ft 486 kts 206°
2026-04-28 17:55 -0.02698 -36.56100 40968 ft 486 kts 206°
2026-04-28 17:55 -0.08680 -36.59268 40969 ft 487 kts 206°
2026-04-28 17:56 -0.14625 -36.62417 40969 ft 487 kts 206°
2026-04-28 17:56 -0.20608 -36.65586 40968 ft 487 kts 206°
2026-04-28 17:57 -0.26589 -36.68753 40966 ft 487 kts 206°
2026-04-28 17:57 -0.32574 -36.71923 40966 ft 487 kts 206°
2026-04-28 17:58 -0.38559 -36.75093 40966 ft 487 kts 206°
2026-04-28 17:58 -0.44499 -36.78239 40966 ft 487 kts 206°
2026-04-28 17:59 -0.50484 -36.81409 40966 ft 487 kts 206°
2026-04-28 17:59 -0.56469 -36.84578 40966 ft 487 kts 206°
2026-04-28 18:00 -0.62454 -36.87748 40967 ft 487 kts 206°
2026-04-28 18:00 -0.68395 -36.90895 40969 ft 487 kts 206°
2026-04-28 18:01 -0.74377 -36.94064 40963 ft 487 kts 206°
2026-04-28 18:01 -0.80358 -36.97232 40966 ft 487 kts 206°
2026-04-28 18:02 -0.86345 -37.00404 40966 ft 487 kts 206°
2026-04-28 18:02 -0.92331 -37.03575 40963 ft 487 kts 206°
2026-04-28 18:03 -0.98346 -37.06635 40967 ft 488 kts 202°
2026-04-28 18:03 -1.04597 -37.09278 40966 ft 488 kts 200°
2026-04-28 18:04 -1.10875 -37.11862 40966 ft 488 kts 201°
2026-04-28 18:04 -1.17128 -37.14514 40966 ft 488 kts 201°
2026-04-28 18:05 -1.22313 -37.16750 40964 ft 488 kts 201°
2026-04-28 18:05 -1.29559 -37.19888 40966 ft 488 kts 201°
2026-04-28 18:06 -1.35787 -37.22584 40966 ft 488 kts 201°
2026-04-28 18:06 -1.42020 -37.25279 40966 ft 488 kts 201°
2026-04-28 18:07 -1.48202 -37.27952 40966 ft 488 kts 201°
2026-04-28 18:07 -1.54429 -37.30645 40965 ft 488 kts 201°
2026-04-28 18:08 -1.60673 -37.33345 40966 ft 489 kts 201°
2026-04-28 18:08 -1.66919 -37.36045 40966 ft 489 kts 201°
2026-04-28 18:09 -1.73159 -37.38744 40971 ft 489 kts 201°
2026-04-28 18:09 -1.79368 -37.41430 40971 ft 489 kts 201°
2026-04-28 18:10 -1.85615 -37.44132 40971 ft 489 kts 201°
2026-04-28 18:10 -1.91865 -37.46835 40971 ft 489 kts 201°
2026-04-28 18:11 -1.98117 -37.49540 40971 ft 490 kts 201°
2026-04-28 18:11 -2.04336 -37.52230 40971 ft 491 kts 201°
2026-04-28 18:12 -2.10601 -37.54941 40971 ft 491 kts 201°
2026-04-28 18:12 -2.16860 -37.57649 40971 ft 491 kts 201°
2026-04-28 18:13 -2.23127 -37.60362 40974 ft 491 kts 201°
2026-04-28 18:13 -2.29395 -37.63075 40974 ft 491 kts 201°
2026-04-28 18:14 -2.35610 -37.65765 40974 ft 491 kts 201°
2026-04-28 18:14 -2.41879 -37.68478 40973 ft 491 kts 201°
2026-04-28 18:15 -2.48142 -37.71189 40977 ft 491 kts 201°
2026-04-28 18:15 -2.54407 -37.73902 40977 ft 490 kts 201°
2026-04-28 18:16 -2.60660 -37.76611 40974 ft 490 kts 201°
2026-04-28 18:16 -2.66877 -37.79303 40974 ft 490 kts 201°
2026-04-28 18:17 -2.73133 -37.82012 40973 ft 490 kts 202°
2026-04-28 18:17 -2.79395 -37.84724 40975 ft 491 kts 202°
2026-04-28 18:18 -2.85663 -37.87440 40974 ft 491 kts 202°
2026-04-28 18:18 -2.90877 -37.89699 40974 ft 491 kts 202°
2026-04-28 18:19 -2.98163 -37.92856 40971 ft 491 kts 202°
2026-04-28 18:19 -3.04433 -37.95573 40971 ft 491 kts 202°
2026-04-28 18:20 -3.10713 -37.98296 40974 ft 491 kts 202°
2026-04-28 18:20 -3.16910 -38.01082 40974 ft 492 kts 204°
2026-04-28 18:21 -3.23102 -38.03991 40974 ft 492 kts 204°
2026-04-28 18:21 -3.29300 -38.06897 40974 ft 492 kts 204°
2026-04-28 18:22 -3.35508 -38.09785 40974 ft 492 kts 203°
2026-04-28 18:22 -3.41714 -38.12662 40974 ft 492 kts 203°
2026-04-28 18:23 -3.47884 -38.15521 40974 ft 492 kts 203°
2026-04-28 18:23 -3.54091 -38.18400 40974 ft 492 kts 203°
2026-04-28 18:24 -3.59272 -38.20737 40977 ft 492 kts 202°
2026-04-28 18:24 -3.66598 -38.23947 40977 ft 491 kts 202°
2026-04-28 18:25 -3.72864 -38.26700 40977 ft 491 kts 202°
2026-04-28 18:26 -3.82203 -38.30832 40978 ft 491 kts 202°
2026-04-28 18:26 -3.88451 -38.33601 40978 ft 491 kts 202°
2026-04-28 18:27 -3.94707 -38.36378 40976 ft 492 kts 202°
2026-04-28 18:27 -4.00963 -38.39155 40977 ft 492 kts 202°
2026-04-28 18:28 -4.07170 -38.41927 40981 ft 492 kts 203°
2026-04-28 18:28 -4.13416 -38.44711 40979 ft 492 kts 202°
2026-04-28 18:29 -4.19669 -38.47482 40980 ft 492 kts 202°
2026-04-28 18:29 -4.25953 -38.50226 40979 ft 493 kts 199°
2026-04-28 18:30 -4.32548 -38.51729 40981 ft 488 kts 182°
2026-04-28 18:30 -4.39330 -38.51663 40982 ft 487 kts 176°
2026-04-28 18:31 -4.46101 -38.51308 40979 ft 488 kts 176°
2026-04-28 18:31 -4.52910 -38.51238 40980 ft 491 kts 179°
2026-04-28 18:32 -4.59704 -38.51325 40978 ft 492 kts 179°
2026-04-28 18:32 -4.66548 -38.51390 40977 ft 492 kts 179°
2026-04-28 18:33 -4.73398 -38.51420 40978 ft 492 kts 179°
2026-04-28 18:33 -4.80249 -38.51437 40976 ft 493 kts 179°
2026-04-28 18:34 -4.87112 -38.51454 40976 ft 493 kts 179°
2026-04-28 18:34 -4.93981 -38.51472 40978 ft 493 kts 179°
2026-04-28 18:35 -5.00799 -38.51487 40982 ft 493 kts 177°
2026-04-28 18:35 -5.07655 -38.51412 40973 ft 493 kts 176°
2026-04-28 18:36 -5.14510 -38.51334 40978 ft 492 kts 175°
2026-04-28 18:36 -5.21341 -38.51136 40974 ft 491 kts 175°
2026-04-28 18:37 -5.28128 -38.50929 40974 ft 491 kts 175°
2026-04-28 18:37 -5.34962 -38.50748 40973 ft 491 kts 175°
2026-04-28 18:38 -5.41802 -38.50581 40974 ft 492 kts 175°
2026-04-28 18:38 -5.48646 -38.50417 40976 ft 492 kts 175°
2026-04-28 18:39 -5.55498 -38.50253 40974 ft 492 kts 175°
2026-04-28 18:39 -5.62307 -38.50193 40972 ft 494 kts 181°
2026-04-28 18:40 -5.69129 -38.51153 40978 ft 496 kts 187°
2026-04-28 18:40 -5.75921 -38.52378 40975 ft 496 kts 188°
2026-04-28 18:41 -5.82706 -38.53643 40977 ft 496 kts 187°
2026-04-28 18:41 -5.89447 -38.54887 40983 ft 496 kts 187°
2026-04-28 18:42 -5.96234 -38.56128 41012 ft 496 kts 187°
2026-04-28 18:42 -6.03008 -38.57423 40993 ft 496 kts 190°
2026-04-28 18:43 -6.09789 -38.58752 40995 ft 496 kts 189°
2026-04-28 18:43 -6.16525 -38.60017 40993 ft 496 kts 189°
2026-04-28 18:44 -6.23320 -38.61261 40994 ft 496 kts 189°
2026-04-28 18:44 -6.33505 -38.63117 40994 ft 496 kts 189°
2026-04-28 18:45 -6.40298 -38.64358 40992 ft 496 kts 189°
2026-04-28 18:45 -6.47038 -38.65589 40992 ft 496 kts 189°
2026-04-28 18:46 -6.53822 -38.66834 40988 ft 496 kts 189°
2026-04-28 18:46 -6.60618 -38.68079 40987 ft 496 kts 189°
2026-04-28 18:47 -6.67404 -38.69321 40988 ft 496 kts 189°
2026-04-28 18:47 -6.74155 -38.70557 40988 ft 496 kts 189°
2026-04-28 18:48 -6.80948 -38.71802 40985 ft 496 kts 189°
2026-04-28 18:48 -6.87742 -38.73048 40985 ft 496 kts 189°
2026-04-28 18:49 -6.93389 -38.74084 40982 ft 496 kts 189°
2026-04-28 18:49 -7.01285 -38.75532 40985 ft 496 kts 189°
2026-04-28 18:50 -7.08076 -38.76784 40985 ft 496 kts 189°
2026-04-28 18:50 -7.14870 -38.78028 40984 ft 496 kts 189°
2026-04-28 18:51 -7.21671 -38.79272 40986 ft 496 kts 189°
2026-04-28 18:51 -7.28463 -38.80518 40985 ft 496 kts 189°
2026-04-28 18:52 -7.35264 -38.81766 40988 ft 496 kts 189°
2026-04-28 18:52 -7.42012 -38.83006 40988 ft 496 kts 189°
2026-04-28 18:53 -7.48804 -38.84254 40993 ft 496 kts 189°
2026-04-28 18:53 -7.55589 -38.85501 40993 ft 496 kts 189°
2026-04-28 18:54 -7.62376 -38.86748 40995 ft 496 kts 189°
2026-04-28 18:54 -7.69121 -38.87988 40995 ft 496 kts 189°
2026-04-28 18:55 -7.74812 -38.89035 40993 ft 496 kts 189°
2026-04-28 18:55 -7.82705 -38.90487 40997 ft 496 kts 189°
2026-04-28 18:56 -7.89501 -38.91742 40996 ft 497 kts 189°
2026-04-28 18:56 -7.96297 -38.92996 40996 ft 496 kts 189°
2026-04-28 18:57 -8.03053 -38.94239 40997 ft 497 kts 189°
2026-04-28 18:57 -8.09851 -38.95498 40996 ft 496 kts 189°
2026-04-28 18:58 -8.16650 -38.96748 40996 ft 497 kts 189°
2026-04-28 18:58 -8.23454 -38.98002 40995 ft 497 kts 189°
2026-04-28 18:59 -8.30256 -38.99257 40996 ft 497 kts 189°
2026-04-28 18:59 -8.37001 -39.00504 40995 ft 496 kts 189°
2026-04-28 19:00 -8.43799 -39.01759 40995 ft 496 kts 189°
2026-04-28 19:00 -8.50591 -39.03017 40996 ft 497 kts 189°
2026-04-28 19:01 -8.57383 -39.04263 40993 ft 496 kts 189°
2026-04-28 19:01 -8.64180 -39.05509 40994 ft 496 kts 190°
2026-04-28 19:02 -8.70929 -39.06750 40990 ft 496 kts 189°
2026-04-28 19:02 -8.77722 -39.08000 40991 ft 496 kts 190°
2026-04-28 19:03 -8.84508 -39.09258 40916 ft 496 kts 190°
2026-04-28 19:03 -8.91304 -39.10517 40918 ft 496 kts 190°
2026-04-28 19:04 -8.98051 -39.11767 40920 ft 497 kts 190°
2026-04-28 19:04 -9.04853 -39.13029 40917 ft 496 kts 189°
2026-04-28 19:05 -9.11644 -39.14289 40923 ft 496 kts 190°
2026-04-28 19:05 -9.18426 -39.15549 40922 ft 496 kts 190°
2026-04-28 19:06 -9.24070 -39.16597 40922 ft 496 kts 190°
2026-04-28 19:06 -9.31962 -39.18063 40926 ft 496 kts 190°
2026-04-28 19:07 -9.38744 -39.19324 40924 ft 496 kts 190°
2026-04-28 19:07 -9.45531 -39.20586 40928 ft 496 kts 189°
2026-04-28 19:08 -9.52316 -39.21848 40937 ft 495 kts 190°
2026-04-28 19:08 -9.59045 -39.23101 40936 ft 495 kts 189°
2026-04-28 19:09 -9.65825 -39.24363 40934 ft 495 kts 189°
2026-04-28 19:09 -9.72604 -39.25626 40937 ft 494 kts 189°
2026-04-28 19:10 -9.79365 -39.26886 40938 ft 494 kts 190°
2026-04-28 19:10 -9.86129 -39.28146 40943 ft 494 kts 189°
2026-04-28 19:11 -9.92846 -39.29399 40945 ft 494 kts 190°
2026-04-28 19:11 -9.99597 -39.30661 40947 ft 492 kts 190°
2026-04-28 19:12 -10.06318 -39.31907 40949 ft 491 kts 190°
2026-04-28 19:12 -10.13037 -39.33151 40949 ft 490 kts 190°
2026-04-28 19:13 -10.19708 -39.34390 40953 ft 490 kts 190°
2026-04-28 19:13 -10.26418 -39.35638 40952 ft 490 kts 190°
2026-04-28 19:14 -10.33130 -39.36900 40953 ft 491 kts 190°
2026-04-28 19:14 -10.39844 -39.38165 40953 ft 491 kts 190°
2026-04-28 19:15 -10.46562 -39.39423 40954 ft 491 kts 190°
2026-04-28 19:15 -10.52149 -39.40464 40957 ft 491 kts 190°
2026-04-28 19:16 -10.59941 -39.41918 40952 ft 489 kts 190°
2026-04-28 19:16 -10.66635 -39.43170 40949 ft 489 kts 190°
2026-04-28 19:17 -10.73324 -39.44422 40952 ft 489 kts 190°
2026-04-28 19:17 -10.79968 -39.45666 40953 ft 489 kts 190°
2026-04-28 19:18 -10.86643 -39.46916 40949 ft 487 kts 190°
2026-04-28 19:18 -10.93310 -39.48166 40950 ft 487 kts 190°
2026-04-28 19:19 -10.99970 -39.49415 40952 ft 487 kts 190°
2026-04-28 19:19 -11.06583 -39.50655 40955 ft 486 kts 190°
2026-04-28 19:20 -11.13228 -39.51902 40952 ft 486 kts 191°
2026-04-28 19:20 -11.19880 -39.53151 40960 ft 486 kts 190°
2026-04-28 19:21 -11.26528 -39.54400 40958 ft 486 kts 190°
2026-04-28 19:21 -11.33178 -39.55649 40963 ft 486 kts 190°
2026-04-28 19:22 -11.38689 -39.56685 40960 ft 485 kts 191°
2026-04-28 19:22 -11.46404 -39.58136 40960 ft 485 kts 191°
2026-04-28 19:23 -11.53048 -39.59387 40963 ft 485 kts 190°
2026-04-28 19:23 -11.59690 -39.60637 40963 ft 486 kts 191°
2026-04-28 19:24 -11.66337 -39.61889 40963 ft 485 kts 191°
2026-04-28 19:24 -11.72933 -39.63132 40963 ft 485 kts 191°
2026-04-28 19:25 -11.79572 -39.64385 40963 ft 485 kts 191°
2026-04-28 19:25 -11.86215 -39.65639 40966 ft 485 kts 191°
2026-04-28 19:26 -11.92813 -39.66891 40963 ft 485 kts 191°
2026-04-28 19:26 -11.99453 -39.68143 40968 ft 485 kts 191°
2026-04-28 19:27 -12.06093 -39.69394 40969 ft 485 kts 191°
2026-04-28 19:27 -12.12737 -39.70649 40969 ft 486 kts 191°
2026-04-28 19:28 -12.19382 -39.71906 40969 ft 485 kts 191°
2026-04-28 19:28 -12.25981 -39.73155 40969 ft 486 kts 191°
2026-04-28 19:29 -12.31506 -39.74201 40974 ft 485 kts 191°
2026-04-28 19:29 -12.39272 -39.75672 40977 ft 486 kts 191°
2026-04-28 19:30 -12.45916 -39.76932 40977 ft 486 kts 191°
2026-04-28 19:30 -12.52516 -39.78184 40977 ft 486 kts 191°
2026-04-28 19:31 -12.59162 -39.79445 40982 ft 485 kts 191°
2026-04-28 19:31 -12.65801 -39.80705 40985 ft 485 kts 191°
2026-04-28 19:32 -12.72444 -39.81967 40987 ft 485 kts 191°
2026-04-28 19:32 -12.79078 -39.83228 40988 ft 484 kts 191°
2026-04-28 19:33 -12.85655 -39.84479 40996 ft 484 kts 191°
2026-04-28 19:33 -12.92278 -39.85749 41004 ft 484 kts 191°
2026-04-28 19:34 -12.98904 -39.87029 41005 ft 484 kts 191°
2026-04-28 19:34 -13.05516 -39.88307 41012 ft 484 kts 191°
2026-04-28 19:35 -13.12081 -39.89575 41012 ft 484 kts 191°
2026-04-28 19:35 -13.18708 -39.90856 41020 ft 484 kts 191°
2026-04-28 19:36 -13.25327 -39.92134 41024 ft 484 kts 191°
2026-04-28 19:36 -13.31938 -39.93412 41023 ft 484 kts 191°
2026-04-28 19:37 -13.37439 -39.94476 41027 ft 484 kts 191°
2026-04-28 19:37 -13.45127 -39.95971 41026 ft 484 kts 191°
2026-04-28 19:38 -13.51744 -39.97251 41023 ft 484 kts 191°
2026-04-28 19:38 -13.58357 -39.98532 41021 ft 484 kts 192°
2026-04-28 19:39 -13.64929 -39.99813 41020 ft 484 kts 192°
2026-04-28 19:39 -13.71539 -40.01097 41018 ft 484 kts 192°
2026-04-28 19:40 -13.78156 -40.02384 41016 ft 484 kts 192°
2026-04-28 19:40 -13.84780 -40.03672 41014 ft 484 kts 192°
2026-04-28 19:41 -13.91353 -40.04952 41012 ft 484 kts 192°
2026-04-28 19:41 -13.97970 -40.06242 41013 ft 484 kts 192°
2026-04-28 19:42 -14.04583 -40.07532 41014 ft 484 kts 192°
2026-04-28 19:42 -14.10093 -40.08607 41018 ft 484 kts 192°
2026-04-28 19:43 -14.17835 -40.10118 41019 ft 485 kts 192°
2026-04-28 19:43 -14.24413 -40.11404 41019 ft 485 kts 192°
2026-04-28 19:44 -14.31041 -40.12701 41026 ft 485 kts 192°
2026-04-28 19:44 -14.37668 -40.14002 41025 ft 485 kts 192°
2026-04-28 19:45 -14.44307 -40.15290 41029 ft 485 kts 192°
2026-04-28 19:45 -14.50889 -40.16570 41028 ft 485 kts 192°
2026-04-28 19:46 -14.57517 -40.17861 41029 ft 485 kts 191°
2026-04-28 19:46 -14.64149 -40.19148 41028 ft 485 kts 192°
2026-04-28 19:47 -14.70780 -40.20449 41028 ft 485 kts 192°
2026-04-28 19:47 -14.77365 -40.21742 41031 ft 485 kts 192°
2026-04-28 19:48 -14.83996 -40.23047 41033 ft 485 kts 192°
2026-04-28 19:48 -14.90624 -40.24349 41032 ft 485 kts 192°
2026-04-28 19:49 -14.97250 -40.25650 41024 ft 485 kts 192°
2026-04-28 19:49 -15.03879 -40.26955 41018 ft 485 kts 192°
2026-04-28 19:50 -15.13780 -40.28909 41018 ft 485 kts 192°
2026-04-28 19:51 -15.20408 -40.30216 41017 ft 485 kts 192°
2026-04-28 19:51 -15.27036 -40.31524 41015 ft 485 kts 192°
2026-04-28 19:52 -15.33655 -40.32835 41015 ft 485 kts 192°
2026-04-28 19:52 -15.40237 -40.34130 41012 ft 484 kts 192°
2026-04-28 19:53 -15.46857 -40.35433 41014 ft 484 kts 192°
2026-04-28 19:53 -15.53472 -40.36737 41014 ft 484 kts 192°
2026-04-28 19:54 -15.60086 -40.38044 41016 ft 484 kts 192°
2026-04-28 19:54 -15.66656 -40.39344 41018 ft 484 kts 192°
2026-04-28 19:55 -15.73271 -40.40653 41017 ft 484 kts 192°
2026-04-28 19:55 -15.79878 -40.41960 41017 ft 483 kts 192°
2026-04-28 19:56 -15.86487 -40.43270 41020 ft 484 kts 192°
2026-04-28 19:56 -15.93095 -40.44581 41017 ft 483 kts 192°
2026-04-28 19:57 -15.99656 -40.45888 41017 ft 483 kts 192°
2026-04-28 19:57 -16.06259 -40.47203 41018 ft 483 kts 192°
2026-04-28 19:58 -16.12859 -40.48515 41020 ft 483 kts 192°
2026-04-28 19:58 -16.19446 -40.49827 41017 ft 482 kts 192°
2026-04-28 19:59 -16.25989 -40.51132 41018 ft 482 kts 192°
2026-04-28 19:59 -16.32570 -40.52444 41024 ft 482 kts 192°
2026-04-28 20:00 -16.39155 -40.53750 41035 ft 482 kts 192°
2026-04-28 20:00 -16.45733 -40.55053 41034 ft 481 kts 192°
2026-04-28 20:01 -16.52295 -40.56361 41032 ft 481 kts 192°
2026-04-28 20:01 -16.58820 -40.57668 41032 ft 481 kts 192°
2026-04-28 20:02 -16.65388 -40.58984 41033 ft 480 kts 192°
2026-04-28 20:02 -16.71948 -40.60299 41031 ft 480 kts 192°
2026-04-28 20:03 -16.78501 -40.61620 41028 ft 480 kts 192°
2026-04-28 20:03 -16.85014 -40.62939 41029 ft 480 kts 192°
2026-04-28 20:04 -16.91567 -40.64264 41025 ft 480 kts 192°
2026-04-28 20:04 -16.98117 -40.65587 41026 ft 479 kts 192°
2026-04-28 20:05 -17.04669 -40.66898 41026 ft 479 kts 192°
2026-04-28 20:05 -17.11208 -40.68201 41022 ft 479 kts 192°
2026-04-28 20:06 -17.17711 -40.69505 41021 ft 479 kts 192°
2026-04-28 20:06 -17.24255 -40.70823 41020 ft 479 kts 192°
2026-04-28 20:07 -17.30801 -40.72148 41020 ft 479 kts 192°
2026-04-28 20:07 -17.37349 -40.73470 41020 ft 479 kts 192°
2026-04-28 20:08 -17.43886 -40.74786 41020 ft 478 kts 192°
2026-04-28 20:08 -17.50375 -40.76097 41021 ft 478 kts 192°
2026-04-28 20:09 -17.56907 -40.77414 41020 ft 478 kts 192°
2026-04-28 20:09 -17.63439 -40.78728 41021 ft 478 kts 192°
2026-04-28 20:10 -17.69966 -40.80045 41019 ft 477 kts 192°
2026-04-28 20:10 -17.76489 -40.81358 41020 ft 477 kts 192°
2026-04-28 20:11 -17.82965 -40.82661 41021 ft 477 kts 192°
2026-04-28 20:11 -17.89487 -40.83980 41023 ft 477 kts 192°
2026-04-28 20:12 -17.95994 -40.85310 41023 ft 477 kts 192°
2026-04-28 20:12 -18.02512 -40.86640 41024 ft 477 kts 192°
2026-04-28 20:13 -18.09026 -40.87955 41023 ft 477 kts 192°
2026-04-28 20:13 -18.15491 -40.89274 41026 ft 477 kts 192°
2026-04-28 20:14 -18.21991 -40.90604 41026 ft 476 kts 192°
2026-04-28 20:14 -18.28500 -40.91940 41025 ft 476 kts 192°
2026-04-28 20:15 -18.34961 -40.93261 41031 ft 476 kts 192°
2026-04-28 20:15 -18.41466 -40.94586 41033 ft 476 kts 192°
2026-04-28 20:16 -18.47969 -40.95903 41031 ft 476 kts 192°
2026-04-28 20:16 -18.54476 -40.97222 41032 ft 476 kts 192°
2026-04-28 20:17 -18.60984 -40.98550 41031 ft 476 kts 192°
2026-04-28 20:17 -18.67438 -40.99872 41031 ft 476 kts 192°
2026-04-28 20:18 -18.73935 -41.01216 41034 ft 476 kts 192°
2026-04-28 20:18 -18.80431 -41.02561 41033 ft 476 kts 192°
2026-04-28 20:19 -18.86921 -41.03898 41034 ft 476 kts 192°
2026-04-28 20:19 -18.93414 -41.05234 41032 ft 475 kts 192°
2026-04-28 20:20 -18.99857 -41.06560 41031 ft 475 kts 192°
2026-04-28 20:20 -19.06352 -41.07893 41026 ft 475 kts 192°
2026-04-28 20:21 -19.12841 -41.09221 41028 ft 475 kts 192°
2026-04-28 20:21 -19.19334 -41.10545 41024 ft 475 kts 192°
2026-04-28 20:22 -19.25784 -41.11871 41024 ft 475 kts 193°
2026-04-28 20:22 -19.32264 -41.13211 41028 ft 475 kts 192°
2026-04-28 20:23 -19.38759 -41.14547 41033 ft 475 kts 193°
2026-04-28 20:23 -19.45247 -41.15887 41031 ft 475 kts 193°
2026-04-28 20:24 -19.51735 -41.17233 41031 ft 475 kts 193°
2026-04-28 20:24 -19.58174 -41.18573 41031 ft 475 kts 193°
2026-04-28 20:25 -19.64660 -41.19920 41031 ft 475 kts 193°
2026-04-28 20:25 -19.71143 -41.21265 41034 ft 475 kts 193°
2026-04-28 20:26 -19.77632 -41.22614 41040 ft 475 kts 193°
2026-04-28 20:26 -19.84083 -41.23948 41037 ft 475 kts 193°
2026-04-28 20:27 -19.90566 -41.25297 41047 ft 475 kts 193°
2026-04-28 20:27 -19.97046 -41.26640 41057 ft 475 kts 193°
2026-04-28 20:28 -20.02436 -41.27758 41054 ft 475 kts 193°
2026-04-28 20:28 -20.08916 -41.29104 41071 ft 475 kts 193°
2026-04-28 20:29 -20.16458 -41.30675 41072 ft 475 kts 193°
2026-04-28 20:29 -20.22935 -41.32020 41076 ft 475 kts 193°
2026-04-28 20:30 -20.28326 -41.33142 41074 ft 475 kts 193°
2026-04-28 20:30 -20.34808 -41.34495 41076 ft 475 kts 193°
2026-04-28 20:31 -20.42350 -41.36068 41069 ft 475 kts 193°
2026-04-28 20:31 -20.47781 -41.37214 41066 ft 475 kts 193°
2026-04-28 20:32 -20.54227 -41.38583 41063 ft 475 kts 193°
2026-04-28 20:32 -20.60712 -41.39941 41064 ft 475 kts 194°
2026-04-28 20:33 -20.67203 -41.41296 41057 ft 475 kts 194°
2026-04-28 20:33 -20.73693 -41.42657 41053 ft 475 kts 194°
2026-04-28 20:34 -20.80179 -41.44022 41063 ft 475 kts 194°
2026-04-28 20:34 -20.86624 -41.45386 41056 ft 475 kts 194°
2026-04-28 20:35 -20.93112 -41.46752 41049 ft 475 kts 194°
2026-04-28 20:35 -20.99596 -41.48122 41049 ft 476 kts 194°
2026-04-28 20:36 -21.06087 -41.49490 41049 ft 475 kts 194°
2026-04-28 20:36 -21.12577 -41.50853 41049 ft 475 kts 194°
2026-04-28 20:37 -21.19008 -41.52217 41040 ft 475 kts 194°
2026-04-28 20:37 -21.25427 -41.53821 41042 ft 471 kts 202°
2026-04-28 20:38 -21.31184 -41.56968 41040 ft 462 kts 219°
2026-04-28 20:38 -21.35781 -41.61682 41033 ft 456 kts 231°
2026-04-28 20:39 -21.39955 -41.66761 41034 ft 457 kts 231°
2026-04-28 20:39 -21.44155 -41.71871 41041 ft 457 kts 230°
2026-04-28 20:40 -21.48362 -41.76979 41033 ft 456 kts 231°
2026-04-28 20:40 -21.52564 -41.82092 41036 ft 456 kts 231°
2026-04-28 20:41 -21.56752 -41.87190 41040 ft 456 kts 231°
2026-04-28 20:41 -21.60923 -41.92271 41040 ft 456 kts 231°
2026-04-28 20:42 -21.65115 -41.97383 41045 ft 456 kts 231°
2026-04-28 20:42 -21.67209 -41.99938 40944 ft 456 kts 231°
2026-04-28 20:42 -21.69302 -42.02492 40689 ft 455 kts 231°
2026-04-28 20:42 -21.71395 -42.05047 40341 ft 454 kts 231°
2026-04-28 20:43 -21.73459 -42.07569 39632 ft 456 kts 231°
2026-04-28 20:43 -21.75556 -42.10134 38936 ft 457 kts 231°
2026-04-28 20:43 -21.77660 -42.12706 38210 ft 458 kts 231°
2026-04-28 20:43 -21.79766 -42.15281 37545 ft 457 kts 231°
2026-04-28 20:44 -21.81871 -42.17840 36872 ft 457 kts 230°
2026-04-28 20:44 -21.84176 -42.20210 36142 ft 462 kts 222°
2026-04-28 20:44 -21.86838 -42.22183 35412 ft 467 kts 214°
2026-04-28 20:44 -21.89673 -42.23927 34618 ft 472 kts 213°
2026-04-28 20:45 -21.92555 -42.25655 33702 ft 477 kts 213°
2026-04-28 20:45 -21.95465 -42.27402 32755 ft 481 kts 213°
2026-04-28 20:45 -21.98354 -42.29141 31833 ft 484 kts 213°
2026-04-28 20:45 -22.01313 -42.30926 30884 ft 489 kts 213°
2026-04-28 20:46 -22.04297 -42.32731 29804 ft 495 kts 213°
2026-04-28 20:46 -22.07158 -42.34795 28852 ft 496 kts 224°
2026-04-28 20:46 -22.09536 -42.37468 28284 ft 492 kts 237°
2026-04-28 20:46 -22.11238 -42.40615 28042 ft 483 kts 250°
2026-04-28 20:47 -22.12321 -42.43991 27338 ft 473 kts 257°
2026-04-28 20:47 -22.13153 -42.47413 26654 ft 468 kts 259°
2026-04-28 20:47 -22.13950 -42.50804 26179 ft 465 kts 259°
2026-04-28 20:47 -22.14735 -42.54130 25744 ft 463 kts 258°
2026-04-28 20:48 -22.15535 -42.57494 25299 ft 461 kts 258°
2026-04-28 20:48 -22.16333 -42.60833 24860 ft 459 kts 258°
2026-04-28 20:48 -22.17130 -42.64161 24405 ft 457 kts 258°
2026-04-28 20:48 -22.17922 -42.67468 23960 ft 455 kts 258°
2026-04-28 20:49 -22.18712 -42.70766 23495 ft 453 kts 258°
2026-04-28 20:49 -22.19497 -42.74039 23023 ft 450 kts 258°
2026-04-28 20:49 -22.20279 -42.77302 22594 ft 447 kts 258°
2026-04-28 20:49 -22.21043 -42.80500 22147 ft 445 kts 258°
2026-04-28 20:50 -22.21813 -42.83723 21723 ft 443 kts 258°
2026-04-28 20:50 -22.22582 -42.86935 21315 ft 441 kts 258°
2026-04-28 20:50 -22.23346 -42.90137 20868 ft 439 kts 258°
2026-04-28 20:50 -22.24104 -42.93322 20381 ft 437 kts 258°
2026-04-28 20:51 -22.24857 -42.96487 19862 ft 434 kts 258°
2026-04-28 20:51 -22.25607 -42.99645 19360 ft 432 kts 258°
2026-04-28 20:51 -22.26351 -43.02779 18880 ft 430 kts 258°
2026-04-28 20:51 -22.27089 -43.05895 18393 ft 427 kts 258°
2026-04-28 20:52 -22.27813 -43.08948 17839 ft 424 kts 258°
2026-04-28 20:52 -22.28542 -43.12022 17282 ft 421 kts 258°
2026-04-28 20:52 -22.29264 -43.15071 16737 ft 418 kts 257°
2026-04-28 20:52 -22.29981 -43.18107 16199 ft 416 kts 257°
2026-04-28 20:53 -22.31397 -43.24110 15248 ft 410 kts 257°
2026-04-28 20:53 -22.32104 -43.27089 15094 ft 409 kts 257°
2026-04-28 20:53 -22.32794 -43.30016 14934 ft 407 kts 257°
2026-04-28 20:54 -22.33490 -43.32969 14709 ft 405 kts 257°
2026-04-28 20:54 -22.34181 -43.35914 14482 ft 404 kts 257°
2026-04-28 20:54 -22.34873 -43.38857 14272 ft 404 kts 256°
2026-04-28 20:54 -22.35561 -43.41786 13921 ft 402 kts 256°
2026-04-28 20:55 -22.36315 -43.44689 13503 ft 401 kts 251°
2026-04-28 20:55 -22.37641 -43.47326 13171 ft 402 kts 232°
2026-04-28 20:55 -22.39683 -43.49375 12713 ft 404 kts 215°
2026-04-28 20:55 -22.42198 -43.50717 11969 ft 402 kts 202°
2026-04-28 20:56 -22.44731 -43.51740 11628 ft 372 kts 201°
2026-04-28 20:56 -22.47044 -43.52665 11079 ft 350 kts 201°
2026-04-28 20:56 -22.49287 -43.53575 10297 ft 338 kts 201°
2026-04-28 20:56 -22.51463 -43.54469 9374 ft 331 kts 202°
2026-04-28 20:57 -22.53600 -43.55353 8415 ft 327 kts 201°
2026-04-28 20:57 -22.55780 -43.55877 7649 ft 317 kts 180°
2026-04-28 20:57 -22.57873 -43.55370 7036 ft 304 kts 156°
2026-04-28 20:57 -22.59744 -43.54426 6599 ft 288 kts 153°
2026-04-28 20:58 -22.61468 -43.53502 6455 ft 264 kts 153°
2026-04-28 20:58 -22.63082 -43.52870 6418 ft 240 kts 175°
2026-04-28 20:58 -22.64713 -43.52597 6423 ft 238 kts 156°
2026-04-28 20:58 -22.65935 -43.51467 6393 ft 231 kts 118°
2026-04-28 20:59 -22.66676 -43.49953 6175 ft 225 kts 114°
2026-04-28 20:59 -22.67084 -43.48342 5727 ft 221 kts 89°
2026-04-28 20:59 -22.67321 -43.46712 5469 ft 225 kts 113°
2026-04-28 20:59 -22.68218 -43.45340 5285 ft 219 kts 128°
2026-04-28 21:00 -22.69177 -43.44130 4878 ft 203 kts 128°
2026-04-28 21:00 -22.70047 -43.42995 4423 ft 191 kts 127°
2026-04-28 21:00 -22.70853 -43.41887 3814 ft 188 kts 124°
2026-04-28 21:00 -22.71630 -43.40781 3413 ft 179 kts 123°
2026-04-28 21:01 -22.72329 -43.39767 3279 ft 156 kts 123°
2026-04-28 21:01 -22.72957 -43.38839 3062 ft 152 kts 124°
2026-04-28 21:01 -22.73591 -43.37889 2611 ft 160 kts 123°
2026-04-28 21:01 -22.74249 -43.36896 2221 ft 159 kts 123°
2026-04-28 21:02 -22.74864 -43.35976 2109 ft 144 kts 123°
2026-04-28 21:02 -22.75422 -43.35132 1968 ft 133 kts 124°
2026-04-28 21:02 -22.75951 -43.34337 1773 ft 132 kts 123°
2026-04-28 21:02 -22.76486 -43.33528 1499 ft 131 kts 125°
2026-04-28 21:03 -22.77007 -43.32752 1343 ft 126 kts 123°
2026-04-28 21:03 -22.77531 -43.31986 1220 ft 128 kts 125°
2026-04-28 21:03 -22.78049 -43.31192 1057 ft 128 kts 123°
2026-04-28 21:03 -22.78565 -43.30405 999 ft 126 kts 124°
2026-04-28 21:04 -22.79080 -43.29642 914 ft 127 kts 126°
2026-04-28 21:04 -22.79614 -43.28813 591 ft 135 kts 124°
2026-04-28 21:04 -22.80134 -43.28005 386 ft 128 kts 129°
2026-04-28 21:04 -22.80638 -43.27252 240 ft 122 kts 127°
2026-04-28 21:05 -22.81144 -43.26494 120 ft 126 kts 129°
2026-04-28 21:05 -22.81651 -43.25743 30 ft 115 kts 126°
2026-04-28 21:05 -22.81968 -43.25271 33 ft 38 kts 126°
2026-04-28 21:05 -22.82046 -43.25030 29 ft 17 kts 89°
2026-04-28 21:06 -22.82075 -43.24837 29 ft 35 kts 118°
2026-04-28 21:06 -22.82110 -43.24743 27 ft 6 kts 60°
2026-04-28 21:06 -22.82004 -43.24651 27 ft 26 kts 37°
2026-04-28 21:06 -22.81887 -43.24602 28 ft 17 kts 20°
2026-04-28 21:07 -22.81866 -43.24591 28 ft 0 kts 27°
2026-04-28 21:07 -22.81865 -43.24591 28 ft 2 kts 27°
2026-04-28 21:08 -22.81829 -43.24566 28 ft 4 kts 36°
2026-04-28 21:08 -22.81805 -43.24514 28 ft 9 kts 94°
2026-04-28 21:08 -22.81812 -43.24491 28 ft 0 kts 115°
2026-04-28 21:08 -22.81818 -43.24477 28 ft 1 kts 118°
2026-04-28 21:09 -22.81825 -43.24464 28 ft 1 kts 122°
2026-04-28 21:09 -22.81833 -43.24452 28 ft 4 kts 124°
2026-04-28 21:09 -22.81838 -43.24444 28 ft 1 kts 124°
2026-04-28 21:09 -22.81839 -43.24443 28 ft 0 kts 124°